Temp_Advection
nan nan nan nan nan nan nan nan nan nan nan nan nan nan nan nan nan nan nan nan nan nan nan nan nan nan nan nan nan nan nan nan nan nan nan nan nan nan nan nan nan nan nan
nan 1 1 1 1 0 0 1 1 0 0 0 0 0 0 0 0 0 0 0 0 0 0 0 0 0 0 0 0 0 0 0 0 0 -0 -0 -0 -0 0 0 0 0 nan
nan 1 1 1 1 -0 0 1 1 1 0 0 0 0 0 0 0 0 0 0 0 0 0 0 0 0 0 0 0 0 0 0 0 0 0 -0 -0 -0 -0 -0 0 0 nan
nan 1 1 1 0 0 1 1 1 0 0 1 0 0 1 1 0 0 0 0 0 0 0 0 0 0 0 0 0 0 0 0 0 0 -0 -0 -0 -0 -0 -1 -0 -0 nan
nan 1 1 1 1 2 1 1 1 1 1 0 0 1 1 0 0 0 0 0 0 0 0 0 0 0 0 0 0 0 0 0 0 0 -0 -0 -0 -0 -0 -1 -1 -1 nan
nan 1 1 1 2 1 1 1 1 1 1 0 1 1 0 0 0 0 0 0 0 0 0 0 0 0 0 0 0 0 0 0 0 0 -0 -0 -0 -0 -0 -0 -1 -1 nan
nan 1 1 1 1 1 1 1 1 0 0 1 1 0 0 0 0 0 0 0 0 0 0 0 0 0 0 0 0 0 0 0 0 -0 -0 -0 -0 -0 -0 -0 -0 -1 nan
nan 1 1 1 1 1 1 0 0 0 1 1 1 0 0 0 1 0 0 0 0 0 1 0 0 0 0 0 0 0 0 0 0 -0 -0 -0 -0 -0 -0 -0 -0 -0 nan
nan 0 0 0 0 -0 -0 -0 -0 0 1 1 1 0 1 1 1 0 0 0 0 1 1 0 0 0 0 0 0 0 0 0 0 -0 -0 -0 -0 -0 -0 -0 -0 -0 nan
nan 0 0 0 0 -0 -0 0 0 1 1 1 1 1 1 0 0 0 0 0 0 0 0 0 0 0 0 0 0 0 0 0 0 0 0 -0 0 0 0 0 -0 0 nan
nan 1 0 0 0 0 1 1 1 1 1 1 1 1 1 1 1 0 0 0 0 0 0 0 0 0 0 0 0 0 0 0 0 -0 -0 -0 -0 0 0 0 0 0 nan
nan 0 0 0 0 1 1 1 1 1 1 1 1 1 0 0 0 0 1 1 1 0 0 0 0 0 0 0 0 0 0 0 0 -0 -0 -0 -0 -0 -0 -0 0 0 nan
nan 0 0 0 1 1 1 1 1 1 0 0 0 0 0 1 0 1 1 1 0 0 1 0 0 0 0 0 0 0 0 0 0 -0 -0 -0 -0 -0 -0 -0 -0 -0 nan
nan 0 0 1 1 1 1 0 0 -0 -0 -0 -0 0 0 0 1 1 0 0 0 0 1 0 1 0 0 0 0 0 0 0 0 -0 -0 -0 -0 -0 -1 -1 -1 -0 nan
nan 0 0 0 0 0 0 0 0 0 -0 0 1 1 0 1 1 1 1 1 1 1 1 1 0 -0 -0 0 0 0 0 0 0 0 0 0 -0 -0 -0 -1 -1 -1 nan
nan 0 0 0 1 0 0 1 1 1 1 1 1 1 1 1 1 1 1 1 1 0 0 0 0 -0 0 0 0 0 0 0 0 0 0 0 0 0 -0 -0 -0 -1 nan
nan 0 0 1 1 1 1 1 1 1 1 0 1 1 1 1 1 1 1 1 0 0 0 -0 -0 -0 0 0 0 0 0 1 0 0 0 0 0 1 0 0 0 -0 nan
nan 0 0 0 0 1 1 1 1 0 0 1 1 1 1 1 1 1 1 1 0 -0 -1 -1 0 0 0 0 0 0 0 0 1 0 0 1 1 1 0 -0 0 0 nan
nan 0 0 0 0 0 0 1 1 1 1 1 1 1 1 1 1 1 0 -1 -1 -0 -0 0 0 0 0 0 0 0 0 0 0 0 1 1 1 0 0 -0 0 0 nan
nan 0 0 0 0 0 1 1 1 1 0 0 1 1 1 1 0 1 1 -1 -1 -1 0 0 0 0 0 0 0 0 0 0 1 1 1 1 0 0 0 0 0 -0 nan
nan 0 0 0 0 0 0 0 0 0 0 0 0 0 0 0 1 1 -0 -2 -1 -0 0 0 0 0 0 0 0 0 0 1 1 1 1 1 1 1 0 -0 -0 0 nan
nan -0 -0 -0 0 0 0 0 0 0 0 -0 0 0 1 1 0 -1 -1 -1 -0 -0 0 0 0 0 0 0 0 0 0 1 1 1 1 1 1 0 0 0 -0 -0 nan
nan -0 -0 -0 0 0 0 0 0 0 0 0 0 0 0 -0 -1 -1 -1 -0 0 0 0 0 0 0 0 0 0 0 0 1 1 0 1 1 1 0 0 -0 0 0 nan
nan -0 0 0 0 0 0 0 0 0 0 -0 -0 -0 -1 -1 -1 -1 -0 0 0 0 1 0 0 0 0 0 0 0 0 1 1 1 1 1 1 0 0 0 -0 -0 nan
nan 0 0 0 0 0 0 -0 -0 -0 -0 -0 -0 -0 -0 -0 -0 -0 0 0 0 0 0 0 0 0 0 -0 -0 0 1 1 0 0 0 1 1 0 -0 -0 -0 -0 nan
nan nan nan nan nan nan nan nan nan nan nan nan nan nan nan nan nan nan nan nan nan nan nan nan nan nan nan nan nan nan nan nan nan nan nan nan nan nan nan nan nan nan nan
Wind_Speed
40 40 40 38 36 34 32 28 25 22 21 21 19 18 16 14 12 12 12 11 11 10 10 9 9 9 8 8 6 6 3 4 6 8 10 8 8 10 10 11 12 13 14
40 40 40 38 37 36 33 29 27 25 23 22 21 19 16 14 13 13 12 11 11 11 10 10 10 8 8 9 9 8 6 7 6 7 6 7 9 11 13 14 13 13 13
38 40 40 40 39 37 33 30 29 26 25 24 22 19 17 16 15 14 13 12 11 10 10 10 9 9 8 8 8 8 7 6 7 6 7 9 9 8 8 10 13 14 14
37 41 43 43 39 36 33 32 30 27 26 24 21 19 18 18 16 15 14 13 12 11 11 10 9 9 8 8 7 6 5 5 5 4 5 5 7 11 14 15 15 16 18
37 41 43 41 39 36 34 32 29 28 26 23 21 21 21 19 18 15 14 14 13 12 11 11 10 9 9 8 7 6 5 5 4 3 4 7 9 12 15 17 19 21 21
35 38 39 37 36 35 34 32 31 28 26 24 24 23 22 20 17 16 15 14 14 13 12 12 11 10 9 8 7 6 5 4 2 2 4 7 9 12 14 17 20 23 25
33 35 37 37 37 35 34 33 30 28 27 26 25 24 22 20 19 18 16 15 14 13 13 13 13 11 9 8 7 6 5 3 1 2 4 7 9 12 14 15 17 19 21
31 33 35 35 35 35 34 30 31 28 28 27 27 25 23 22 20 19 17 16 15 15 14 13 12 11 9 8 7 6 5 3 1 2 4 6 8 11 14 17 19 21 22
29 30 32 33 34 33 31 33 31 29 29 29 28 26 25 24 22 19 18 18 16 16 16 15 13 11 11 10 8 7 6 4 2 2 5 7 9 11 13 17 18 22 25
27 28 30 31 32 33 34 32 31 31 30 30 29 27 24 23 22 21 20 19 18 18 17 16 15 13 12 11 9 8 6 5 4 5 6 8 11 13 15 17 19 21 23
21 24 26 28 30 31 32 32 32 32 31 31 30 27 26 25 23 22 21 20 18 18 18 17 16 15 14 12 10 8 7 7 7 9 10 12 13 15 15 17 20 23 24
16 21 26 28 30 31 32 32 32 32 32 32 30 29 28 26 25 23 22 20 19 19 18 17 16 15 14 13 11 10 9 9 10 12 14 15 16 16 17 19 20 22 26
17 20 23 26 29 31 31 32 33 34 34 33 32 32 30 28 26 24 23 21 21 19 17 16 16 16 16 14 12 12 12 11 12 14 16 18 19 20 22 23 23 25 27
20 20 21 25 29 30 30 32 34 35 35 35 34 33 31 29 28 27 26 23 21 19 18 17 19 18 18 16 15 13 13 13 15 16 18 20 21 23 25 27 27 27 28
20 20 21 24 27 29 31 32 35 34 34 34 34 32 31 32 31 27 25 24 20 17 17 21 22 22 20 18 16 15 14 15 16 18 20 22 23 25 27 27 27 25 25
17 19 22 23 26 28 30 31 32 31 29 30 29 27 28 26 25 24 23 20 18 17 21 25 23 21 20 18 17 15 16 17 17 19 22 23 24 26 27 27 24 25 27
13 16 20 23 25 28 30 31 32 30 28 26 26 25 25 24 25 24 20 18 17 21 26 23 20 22 20 18 16 18 18 18 19 21 22 24 25 26 26 25 26 26 29
12 15 18 20 22 25 27 29 30 30 29 27 24 23 24 24 23 20 18 15 23 26 22 23 24 21 18 17 18 19 20 21 21 23 24 24 23 23 24 26 27 28 32
10 13 13 14 16 19 22 24 26 26 25 23 24 25 24 22 19 16 17 24 24 22 25 26 23 20 19 19 20 20 22 22 23 24 23 21 19 20 25 27 29 29 32
5 7 9 11 13 14 15 16 18 21 22 22 22 21 24 25 25 25 24 25 25 26 23 21 22 22 21 20 21 22 22 23 23 21 20 17 18 20 25 28 30 35 30
3 3 6 7 9 11 13 15 17 19 22 24 26 27 28 30 34 28 23 23 24 23 22 21 21 22 21 21 22 22 23 23 20 19 19 19 21 24 25 28 29 28 31
6 5 5 6 7 9 12 14 17 19 22 25 29 33 31 23 18 17 20 22 20 22 24 23 23 22 22 23 23 23 23 21 18 16 18 20 22 24 25 27 29 30 28
9 7 6 7 8 10 12 13 15 18 19 20 19 15 14 14 17 19 20 23 25 23 22 23 24 24 23 24 23 23 23 18 16 17 20 22 24 25 27 29 27 27 29
9 9 9 9 8 7 7 10 12 11 9 8 9 12 16 19 22 24 23 23 24 24 24 25 25 25 23 23 22 22 20 17 17 19 20 23 25 26 24 25 25 26 28
14 14 14 15 16 17 19 21 21 22 22 23 24 25 24 24 26 27 26 26 25 25 24 24 24 23 23 23 22 20 18 16 17 19 22 23 24 24 25 24 24 24 27
16 17 18 19 19 18 19 20 20 21 21 22 22 23 23 23 24 24 23 22 21 22 23 23 24 23 22 22 21 18 16 16 17 20 21 23 23 24 22 22 23 24 26
Wind_Direction
223 223 222 223 225 228 229 230 231 229 230 230 231 233 231 228 227 227 228 225 226 226 224 226 224 226 229 235 226 237 240 238 267 284 293 319 324 335 334 335 336 338 339
224 222 222 222 223 224 225 226 227 227 224 228 229 228 229 224 221 222 221 220 221 221 220 219 223 222 223 222 225 236 236 250 273 291 315 327 332 339 340 342 346 350 341
224 221 220 221 220 223 223 223 225 224 224 224 226 225 222 220 217 214 213 214 215 218 222 226 226 229 228 227 232 239 242 254 268 295 323 332 337 339 349 353 354 357 358
225 222 220 220 221 224 222 221 221 222 225 223 222 220 217 216 212 209 210 212 213 216 222 223 223 223 223 223 224 226 230 245 263 294 327 347 356 0 358 353 356 356 354
222 220 221 222 224 222 218 218 219 221 223 221 218 215 213 212 209 209 210 213 214 218 219 219 219 215 212 212 212 216 222 237 263 299 332 353 356 357 359 357 350 349 353
228 226 224 223 223 219 217 217 218 218 218 217 215 213 213 211 208 208 212 216 216 217 219 217 216 214 210 212 215 215 215 217 240 316 345 354 2 358 357 354 353 352 354
228 229 226 222 220 218 217 215 217 216 217 215 213 211 212 210 210 211 212 215 218 219 221 219 216 211 210 207 207 206 210 221 247 335 3 358 358 353 350 348 346 344 342
227 229 229 224 220 217 216 216 221 217 216 215 214 212 212 211 213 213 212 215 217 221 223 221 217 211 209 208 207 210 214 210 202 350 351 348 344 342 341 339 338 333 331
233 231 230 227 222 218 221 219 217 218 215 214 215 214 213 212 212 213 215 217 218 218 216 217 218 213 211 210 209 208 210 214 236 308 328 335 333 331 330 327 328 326 327
232 231 230 228 223 221 221 220 220 219 218 215 214 215 215 215 215 215 217 218 217 216 214 215 216 212 212 213 213 214 220 231 256 292 312 323 326 325 324 323 323 322 323
242 239 233 227 225 225 226 223 221 218 215 216 215 215 215 216 217 218 220 220 220 220 220 219 217 214 214 217 222 230 244 264 285 305 316 319 318 317 316 317 317 317 314
250 243 238 233 230 229 227 225 220 218 215 215 214 214 216 217 217 220 221 221 220 222 224 223 220 219 222 226 234 244 255 273 291 301 310 314 312 311 310 310 311 311 309
249 243 239 235 233 231 226 222 219 218 218 217 216 217 218 217 218 219 221 220 221 223 225 228 228 227 229 235 246 253 262 275 289 302 308 309 310 310 310 309 309 309 304
249 247 242 234 231 231 227 225 223 221 219 221 221 221 220 221 222 218 218 218 220 222 228 229 234 234 238 244 249 256 265 279 290 298 303 304 307 309 310 309 309 309 305
246 246 243 239 234 231 230 229 227 230 231 230 229 228 225 227 225 224 223 221 220 229 231 237 233 237 242 247 253 260 268 279 290 296 298 301 306 307 307 309 312 312 313
241 244 243 242 238 235 234 232 232 236 238 237 237 239 236 233 230 221 214 221 229 236 243 237 236 242 246 251 260 266 275 283 288 291 294 299 301 302 303 308 316 318 316
246 251 248 243 241 240 236 235 234 231 230 233 232 228 227 229 216 213 218 232 254 249 239 238 242 246 250 255 264 271 278 283 286 285 291 293 294 295 300 308 312 312 313
254 253 255 257 252 245 240 238 236 235 232 227 222 228 224 216 213 223 231 249 248 237 244 253 254 253 255 261 264 271 279 281 282 288 290 292 292 297 303 303 308 308 309
254 256 257 256 255 252 248 244 241 238 235 237 235 215 210 215 221 228 248 247 241 246 250 253 255 255 257 260 264 274 278 282 286 289 291 289 292 295 298 300 302 300 304
275 256 259 260 256 254 249 243 238 235 234 228 219 219 217 222 232 246 244 245 246 250 250 250 256 260 260 263 270 274 279 282 284 286 284 282 284 288 291 296 293 298 303
327 265 246 238 230 231 231 232 232 226 224 227 228 227 235 246 257 251 231 244 253 254 255 259 259 258 261 269 275 278 280 282 278 275 278 286 289 291 292 292 297 300 295
356 345 323 293 281 272 268 264 258 253 249 242 243 249 254 244 227 237 244 249 252 255 259 259 257 260 267 273 277 277 280 275 266 270 280 286 289 290 293 298 301 303 302
32 17 339 302 282 268 257 252 248 245 242 243 244 236 218 236 249 249 247 249 256 259 258 257 259 261 268 274 274 277 275 265 262 271 281 287 288 293 296 300 303 304 305
321 310 301 298 296 301 286 273 263 254 248 251 253 252 256 256 256 260 263 263 263 261 257 254 256 261 268 273 274 275 266 261 268 278 286 288 290 294 295 297 298 302 305
298 295 291 288 282 278 275 270 267 265 262 262 264 264 263 260 260 263 264 265 263 258 254 253 255 263 269 271 274 272 259 264 277 287 289 292 296 292 293 294 299 304 306
291 289 288 285 281 279 276 274 273 272 268 267 267 267 265 265 263 263 263 262 259 256 255 254 258 264 267 270 275 259 255 269 279 285 287 291 288 288 289 292 299 303 307
Height
1471 1477 1482 1485 1490 1496 1498 1500 1504 1505 1508 1510 1511 1512 1514 1515 1516 1518 1520 1521 1522 1523 1524 1525 1526 1526 1527 1528 1528 1528 1528 1530 1531 1531 1529 1528 1525 1524 1523 1521 1519 1517 1515
1464 1470 1475 1479 1485 1490 1492 1495 1499 1501 1502 1504 1506 1507 1510 1511 1512 1514 1516 1518 1519 1520 1522 1522 1524 1524 1524 1524 1525 1525 1525 1525 1526 1526 1525 1525 1524 1522 1520 1519 1517 1515 1512
1458 1463 1468 1473 1477 1482 1485 1489 1493 1496 1498 1499 1501 1503 1506 1508 1508 1510 1513 1515 1516 1518 1519 1520 1521 1521 1521 1522 1523 1523 1523 1524 1523 1523 1523 1523 1522 1520 1519 1517 1515 1514 1512
1451 1456 1461 1466 1470 1474 1479 1483 1487 1490 1493 1494 1497 1499 1502 1504 1505 1507 1509 1512 1513 1515 1516 1518 1519 1519 1520 1519 1520 1521 1521 1521 1521 1521 1521 1520 1518 1517 1515 1513 1512 1511 1508
1443 1447 1453 1460 1464 1470 1473 1477 1482 1485 1487 1490 1492 1495 1498 1500 1502 1504 1506 1508 1510 1512 1513 1515 1516 1516 1517 1517 1517 1518 1518 1519 1519 1519 1518 1517 1516 1514 1512 1510 1509 1507 1504
1442 1445 1449 1454 1459 1464 1468 1472 1476 1479 1482 1485 1488 1491 1494 1496 1499 1501 1502 1505 1506 1508 1510 1512 1513 1514 1514 1514 1515 1515 1516 1516 1516 1516 1516 1515 1513 1512 1510 1509 1506 1502 1501
1437 1441 1446 1449 1453 1459 1463 1466 1470 1473 1477 1480 1484 1487 1489 1493 1495 1497 1498 1501 1503 1504 1507 1509 1510 1511 1511 1511 1513 1514 1514 1515 1515 1515 1513 1512 1511 1509 1508 1506 1504 1503 1501
1433 1437 1441 1444 1449 1453 1458 1462 1467 1468 1472 1476 1480 1482 1485 1488 1491 1493 1494 1497 1499 1501 1504 1506 1508 1508 1508 1509 1510 1511 1512 1512 1512 1512 1511 1510 1508 1507 1505 1503 1501 1499 1498
1427 1431 1435 1439 1444 1448 1453 1456 1460 1463 1467 1471 1475 1478 1481 1484 1486 1488 1491 1493 1494 1497 1500 1502 1504 1505 1505 1506 1507 1509 1510 1510 1510 1509 1509 1508 1507 1505 1502 1500 1498 1495 1491
1421 1424 1429 1433 1437 1441 1446 1450 1454 1459 1463 1467 1470 1473 1477 1480 1482 1484 1486 1488 1491 1493 1496 1498 1500 1501 1502 1504 1505 1506 1507 1507 1507 1507 1506 1504 1503 1502 1500 1496 1493 1491 1488
1420 1422 1426 1430 1434 1438 1442 1446 1450 1454 1458 1462 1466 1469 1472 1475 1477 1479 1481 1484 1486 1489 1491 1493 1495 1497 1499 1500 1502 1503 1504 1504 1503 1502 1501 1500 1499 1497 1495 1492 1491 1488 1484
1417 1419 1422 1426 1430 1434 1438 1443 1446 1450 1453 1457 1461 1463 1466 1469 1472 1475 1477 1480 1482 1485 1487 1489 1491 1493 1495 1496 1498 1499 1499 1499 1498 1498 1497 1496 1493 1493 1490 1488 1484 1482 1480
1413 1415 1418 1423 1426 1430 1434 1437 1441 1444 1448 1451 1454 1457 1460 1464 1467 1470 1472 1475 1478 1480 1483 1485 1487 1489 1491 1492 1493 1494 1495 1494 1493 1492 1492 1490 1489 1488 1486 1482 1480 1478 1473
1410 1412 1414 1417 1420 1424 1428 1432 1435 1438 1441 1445 1448 1451 1455 1459 1461 1464 1467 1470 1473 1476 1478 1481 1483 1484 1486 1488 1489 1489 1490 1489 1488 1487 1485 1484 1483 1481 1479 1476 1472 1468 1465
1406 1408 1410 1413 1416 1419 1422 1426 1428 1432 1436 1438 1441 1446 1449 1452 1455 1460 1463 1465 1468 1471 1474 1476 1476 1478 1480 1482 1483 1484 1484 1483 1482 1481 1480 1478 1475 1475 1472 1470 1466 1462 1458
1403 1405 1408 1410 1413 1416 1419 1422 1425 1429 1433 1436 1439 1442 1445 1448 1452 1455 1458 1461 1464 1466 1467 1468 1470 1472 1473 1475 1477 1477 1478 1478 1476 1474 1473 1471 1469 1467 1466 1464 1460 1457 1452
1401 1403 1405 1407 1409 1412 1415 1417 1420 1424 1427 1430 1433 1436 1439 1444 1447 1450 1453 1456 1458 1460 1460 1462 1464 1465 1467 1467 1468 1471 1469 1471 1470 1467 1466 1464 1462 1461 1459 1456 1454 1451 1446
1399 1400 1402 1404 1406 1408 1410 1413 1416 1419 1422 1425 1428 1432 1435 1438 1442 1445 1447 1448 1451 1451 1454 1457 1458 1459 1460 1460 1461 1463 1464 1462 1461 1460 1459 1457 1456 1454 1452 1450 1447 1444 1441
1397 1398 1400 1402 1404 1406 1408 1410 1413 1416 1419 1423 1426 1428 1431 1434 1436 1438 1440 1442 1444 1446 1448 1451 1453 1452 1452 1453 1454 1454 1455 1454 1453 1452 1451 1450 1450 1448 1445 1443 1440 1438 1435
1396 1397 1399 1401 1402 1404 1407 1409 1412 1414 1416 1419 1421 1425 1427 1428 1429 1431 1433 1436 1438 1439 1441 1440 1445 1447 1445 1445 1445 1445 1445 1444 1444 1444 1442 1442 1443 1442 1438 1435 1433 1429 1426
1397 1398 1399 1400 1402 1403 1405 1406 1408 1411 1413 1415 1417 1418 1420 1421 1422 1423 1426 1430 1431 1432 1433 1435 1437 1438 1439 1438 1437 1437 1436 1436 1437 1436 1436 1434 1434 1433 1431 1428 1424 1422 1419
1398 1399 1400 1400 1401 1402 1403 1404 1405 1407 1409 1410 1410 1411 1412 1413 1415 1418 1420 1422 1424 1426 1426 1427 1429 1430 1431 1431 1430 1430 1429 1428 1429 1428 1428 1426 1426 1425 1422 1419 1416 1414 1411
1399 1399 1399 1400 1399 1399 1400 1401 1402 1403 1403 1404 1405 1405 1406 1409 1412 1412 1414 1416 1417 1418 1419 1419 1421 1422 1423 1423 1422 1422 1421 1421 1422 1421 1420 1419 1418 1416 1414 1411 1409 1406 1404
1399 1399 1398 1399 1399 1398 1399 1400 1400 1400 1400 1401 1402 1403 1404 1405 1406 1406 1406 1409 1410 1411 1412 1412 1412 1415 1413 1413 1414 1413 1413 1413 1414 1414 1413 1411 1410 1408 1406 1404 1403 1400 1397
1396 1396 1395 1395 1396 1395 1396 1397 1396 1396 1396 1397 1396 1396 1397 1398 1398 1399 1399 1400 1400 1401 1403 1403 1405 1405 1404 1405 1405 1405 1405 1406 1407 1406 1405 1404 1402 1400 1399 1398 1396 1394 1391
1392 1391 1391 1391 1390 1390 1390 1389 1389 1389 1388 1388 1388 1388 1388 1388 1389 1389 1391 1392 1392 1393 1394 1395 1396 1396 1396 1397 1398 1398 1399 1399 1400 1400 1399 1397 1395 1393 1392 1391 1389 1387 1384